Burns, OR

12:12 PM PDT on April 20, 2018 (GMT -0700)
Burns Municipal

Weather History for KBNO - September, 2013

Change the Weather History Date:

Tuesday, September 3, 2013

  Actual Average Record
Temperature  
Mean Temperature 71 °F 60 °F  
Max Temperature 86 °F 80 °F 99 °F (2017)
Min Temperature 55 °F 40 °F 27 °F (1980)
Degree Days  
Heating Degree Days 0 6  
Month to date heating degree days 3 16  
Since 1 July heating degree days 39 153  
Cooling Degree Days 6 1  
Month to date cooling degree days 9 3  
Year to date cooling degree days 360 209  
Growing Degree Days 22 (Base 50)    
Moisture  
Dew Point 55 °F    
Average Humidity 63    
Maximum Humidity 93    
Minimum Humidity 32    
Precipitation  
Precipitation T in 0.01 in 0.13 in (1946)
Month to date precipitation 0.14 0.04  
Year to date precipitation 4.06 7.02  
Sea Level Pressure  
Sea Level Pressure 29.95 in    
Wind  
Wind Speed 7 mph (ENE)    
Max Wind Speed 22 mph    
Max Gust Speed 26 mph    
Visibility 10 miles    
Events Rain , Thunderstorm    
T = Trace of Precipitation, MM = Missing Value Source: NWS Daily Summary

Daily Weather History Graph

Daily Weather History Graph

Search for Another Location

Airport or City:

Astronomy

Sep. 03, 2013 Rise Set
Actual Time 6:22 AM PDT 7:27 PM PDT
Civil Twilight 5:52 AM PDT 7:56 PM PDT
Nautical Twilight 5:17 AM PDT 8:31 PM PDT
Astronomical Twilight 4:40 AM PDT 9:08 PM PDT
Moon 4:39 AM PDT (9/3) 6:17 PM PDT (9/3)
Length of Visible Light 14h 03m
Length of Day
13h 04m
Waning Crescent, 3% of the Moon is Illuminated
Sep 3
Waning Crescent
Sep 5
New
Sep 12
First Quarter
Sep 19
Full
Sep 26
Last Quarter

Hourly Weather History & Observations

Time (PDT) Temp. Heat Index Dew Point Humidity Pressure Visibility Wind Dir Wind Speed Gust Speed Precip Events Conditions
12:53 AM 61.0 °F - 55.0 °F 81% 29.96 in 10.0 mi Calm Calm - N/A   Scattered Clouds
1:53 AM 61.0 °F - 57.0 °F 87% 29.95 in 10.0 mi ENE 6.9 mph - N/A   Partly Cloudy
2:53 AM 61.0 °F - 57.0 °F 87% 29.96 in 10.0 mi NE 6.9 mph - N/A   Overcast
3:53 AM 61.0 °F - 55.9 °F 83% 29.95 in 10.0 mi ENE 4.6 mph - N/A   Overcast
4:53 AM 60.1 °F - 55.0 °F 83% 29.95 in 10.0 mi NNE 4.6 mph - N/A   Mostly Cloudy
5:53 AM 59.0 °F - 54.0 °F 83% 29.97 in 10.0 mi Calm Calm - N/A   Overcast
6:53 AM 57.9 °F - 55.9 °F 93% 29.99 in 10.0 mi SSW 5.8 mph - 0.00 in   Mostly Cloudy
7:53 AM 61.0 °F - 57.9 °F 90% 29.99 in 10.0 mi Calm Calm - N/A   Overcast
8:53 AM 66.9 °F - 57.0 °F 70% 29.99 in 10.0 mi NE 8.1 mph - N/A   Overcast
9:53 AM 70.0 °F - 57.0 °F 63% 30.00 in 10.0 mi ENE 9.2 mph - N/A   Clear
10:53 AM 73.9 °F - 57.0 °F 55% 29.98 in 10.0 mi NE 9.2 mph - N/A   Scattered Clouds
11:53 AM 75.9 °F - 55.9 °F 50% 29.96 in 10.0 mi Variable 4.6 mph - N/A   Overcast
12:53 PM 80.1 °F 80.2 °F 55.9 °F 43% 29.94 in 10.0 mi Variable 6.9 mph 19.6 mph N/A   Scattered Clouds
1:35 PM 84.2 °F 82.8 °F 53.6 °F 35% 30.03 in 10.0 mi South 15.0 mph 21.9 mph N/A Thunderstorm Scattered Clouds
1:50 PM 82.4 °F - 51.8 °F 35% 30.03 in 10.0 mi South 12.7 mph 23.0 mph N/A   Mostly Cloudy
1:53 PM 81.0 °F - 51.1 °F 35% 29.92 in 10.0 mi SSE 9.2 mph 23.0 mph N/A   Mostly Cloudy
2:04 PM 78.8 °F - 55.4 °F 44% 30.04 in 10.0 mi SE 13.8 mph - 0.00 in Rain , Thunderstorm Light Rain
2:53 PM 79.0 °F - 52.0 °F 39% 29.91 in 10.0 mi East 4.6 mph - 0.00 in   Clear
3:53 PM 80.1 °F 79.9 °F 53.1 °F 39% 29.88 in 10.0 mi NNE 3.5 mph - N/A   Mostly Cloudy
4:53 PM 84.9 °F - 52.0 °F 32% 29.86 in 10.0 mi East 11.5 mph 19.6 mph N/A   Mostly Cloudy
5:53 PM 80.1 °F 80.1 °F 55.0 °F 42% 29.88 in 10.0 mi NNE 15.0 mph 24.2 mph N/A   Mostly Cloudy
6:53 PM 73.0 °F - 57.0 °F 57% 29.91 in 10.0 mi NNE 16.1 mph 20.7 mph N/A   Clear
7:53 PM 69.1 °F - 57.9 °F 68% 29.92 in 10.0 mi NNE 15.0 mph 21.9 mph N/A   Clear
8:53 PM 66.0 °F - 57.0 °F 73% 29.93 in 10.0 mi NE 10.4 mph - N/A   Clear
9:53 PM 66.9 °F - 55.9 °F 68% 29.94 in 10.0 mi Variable 4.6 mph - N/A   Clear
10:53 PM 61.0 °F - 54.0 °F 78% 29.96 in 10.0 mi Calm Calm - N/A   Clear
11:53 PM 57.9 °F - 53.1 °F 84% 29.98 in 10.0 mi Calm Calm - N/A   Clear